Location: Pine Mountain Observatory
(43.7910°N, 120.9377°W)
Time: 03:49:52
(UTC-07:00)

ISS - Visible Passes

Search period start: 21 May 2018 00:00
Search period end: 31 May 2018 00:00
Orbit: 402 x 407 km, 51.6° (Epoch: 22 May)

Date Brightness Start Highest point End Pass type
(mag) Time Alt. Az. Time Alt. Az. Time Alt. Az.
21 May -1.1 01:03:17 10° NW 01:05:48 20° N 01:08:18 10° NE visible
21 May -1.8 02:40:05 10° NW 02:42:59 29° NNE 02:45:53 10° E visible
21 May -3.9 04:16:26 10° WNW 04:19:39 59° SW 04:22:51 10° SE visible
21 May -2.4 20:57:46 10° S 21:00:12 19° SE 21:02:38 10° E visible
21 May -3.3 22:33:12 10° WSW 22:36:25 59° NNW 22:39:39 10° NE visible
22 May -1.2 00:10:46 10° WNW 00:13:23 22° N 00:16:00 10° NE visible
22 May -1.4 01:47:55 10° NW 01:50:37 23° NNE 01:53:19 10° ENE visible
22 May -3.8 03:24:13 10° NW 03:27:29 77° NNE 03:30:44 10° ESE visible
22 May -4.0 21:40:57 10° SW 21:44:13 81° SE 21:47:29 10° ENE visible
22 May -1.5 23:18:11 10° WNW 23:20:59 26° NNW 23:23:47 10° NE visible
23 May -1.1 00:55:39 10° NW 00:58:12 21° N 01:00:45 10° ENE visible
23 May -2.8 02:32:05 10° NW 02:35:14 46° NNE 02:38:24 10° E visible
23 May -2.9 04:08:49 10° W 04:11:35 26° SW 04:14:20 10° SSE visible
23 May -2.0 22:25:36 10° W 22:28:36 33° NNW 22:31:38 10° NE visible
24 May -1.1 00:03:15 10° NW 00:05:45 20° N 00:08:15 10° NE visible
24 May -2.0 01:39:56 10° NW 01:42:40 32° N 01:42:40 32° N visible
24 May -2.8 21:33:06 10° WSW 21:36:17 49° NNW 21:39:28 10° NE visible
24 May -1.1 23:10:44 10° WNW 23:13:18 21° N 23:15:52 10° NE visible
25 May -1.6 00:47:44 10° NW 00:50:31 25° NNE 00:51:10 23° NE visible
25 May -1.4 22:18:07 10° WNW 22:20:50 24° NNW 22:23:35 10° NE visible
25 May -1.3 23:55:29 10° NW 23:58:05 21° N 00:00:10 13° NE visible
26 May -1.3 01:31:51 10° NW 01:32:47 17° NW 01:32:47 17° NW visible
26 May -1.8 21:25:29 10° W 21:28:25 30° NNW 21:31:22 10° NE visible
26 May -1.1 23:03:06 10° NW 23:05:35 20° N 23:08:06 10° NE visible
27 May -2.0 00:39:39 10° NW 00:41:58 31° N 00:41:58 31° N visible
27 May -1.2 22:10:34 10° NW 22:13:06 20° N 22:15:38 10° NE visible
27 May -1.9 23:47:27 10° NW 23:50:18 27° NNE 23:51:13 23° NE visible
28 May -0.8 01:23:46 10° WNW 01:23:51 11° WNW 01:23:51 11° WNW visible
28 May -1.3 21:17:56 10° WNW 21:20:36 23° N 21:23:16 10° NE visible
28 May -1.5 22:55:11 10° NW 22:57:50 22° N 23:00:29 10° ENE visible
29 May -1.9 00:31:29 10° NW 00:33:10 27° NW 00:33:10 27° NW visible
29 May -1.3 22:02:48 10° NW 22:05:19 20° N 22:07:50 10° NE visible
29 May -2.8 23:39:16 10° NW 23:42:23 41° NNE 23:42:31 41° NNE visible
30 May -1.3 21:10:16 10° NW 21:12:47 20° N 21:15:18 10° NE visible
30 May -2.1 22:47:02 10° NW 22:49:58 29° NNE 22:51:53 17° ENE visible
